Location: Banios
(43.0451°N, 0.2335°E)
Time: 13:50:47
(UTC+00:00)

A-11 Canister half - Pass Details

Date: 11 May 2021
Orbit: 1513 x 1686 km, 47.2° (Epoch: 14 June)

Event Time Altitude Azimuth Distance (km) Brightness Sun altitude
Rises 20:21:21 0° 293° (WNW) 4,666 13.2 -11.6°
Reaches altitude 10° 20:24:21 10° 292° (WNW) 3,692 12.3 -12.0°
Maximum altitude 20:33:40 80° 208° (SSW) 1,574 9.0 -13.3°
Enters shadow 20:41:24 18° 124° (ESE) 3,209 10.0 -14.4°
Drops below altitude 10° 20:43:16 10° 123° (ESE) 3,797 - -14.6°
Sets 20:46:24 0° 122° (ESE) 4,804 - -15.0°
